SAS277 EKCH-LGAV

Flight info

Callsign SAS277
Flight time 2h 48m
Altitude 35000
Route SALLO M44 KOGIM M725 MASOR DCT POGAB DCT OMELO DCT VOZ DCT LANUX DCT SASAL DCT KOPRY DCT GUBOK DCT MEDUX UM867 KOGAT DCT TALAS DCT ELPIS UP20 ROPOX
Aircraft A321/M-SDE3FGIJ1RWXY/LB1

Departure

Time 2026-04-26 06:53
Airport Copenhagen Kastrup Airport (EKCH)

Arrival

Time 2026-04-26 09:42
Airport Athens Eleftherios Venizelos International Airport (LGAV)
Time Latitude Longitude Altitude Speed Heading
2026-04-26 06:20 55.62761 12.64312 17 ft 0 kts 296°
2026-04-26 06:41 55.62756 12.64330 17 ft 3 kts 297°
2026-04-26 06:41 55.62741 12.64362 19 ft 4 kts 348°
2026-04-26 06:42 55.62719 12.64356 18 ft 4 kts 27°
2026-04-26 06:42 55.62695 12.64336 19 ft 3 kts 21°
2026-04-26 06:42 55.62675 12.64322 19 ft 4 kts 21°
2026-04-26 06:42 55.62654 12.64308 17 ft 2 kts 21°
2026-04-26 06:43 55.62631 12.64290 18 ft 4 kts 31°
2026-04-26 06:43 55.62613 12.64270 18 ft 4 kts 33°
2026-04-26 06:43 55.62590 12.64243 20 ft 4 kts 33°
2026-04-26 06:43 55.62569 12.64219 19 ft 4 kts 34°
2026-04-26 06:44 55.62551 12.64187 20 ft 4 kts 68°
2026-04-26 06:44 55.62547 12.64143 20 ft 4 kts 104°
2026-04-26 06:44 55.62558 12.64104 19 ft 4 kts 123°
2026-04-26 06:44 55.62572 12.64065 19 ft 3 kts 123°
2026-04-26 06:45 55.62575 12.64058 20 ft 0 kts 123°
2026-04-26 06:46 55.62569 12.64075 19 ft 3 kts 123°
2026-04-26 06:47 55.62553 12.64118 18 ft 6 kts 123°
2026-04-26 06:47 55.62526 12.64190 18 ft 8 kts 123°
2026-04-26 06:47 55.62488 12.64291 17 ft 11 kts 123°
2026-04-26 06:47 55.62437 12.64417 17 ft 14 kts 128°
2026-04-26 06:48 55.62374 12.64566 17 ft 16 kts 121°
2026-04-26 06:48 55.62308 12.64745 19 ft 18 kts 126°
2026-04-26 06:48 55.62235 12.64946 17 ft 20 kts 122°
2026-04-26 06:48 55.62150 12.65088 17 ft 16 kts 182°
2026-04-26 06:49 55.62051 12.65004 19 ft 16 kts 211°
2026-04-26 06:49 55.61952 12.64891 17 ft 18 kts 215°
2026-04-26 06:49 55.61848 12.64769 19 ft 18 kts 213°
2026-04-26 06:49 55.61742 12.64645 18 ft 19 kts 213°
2026-04-26 06:50 55.61632 12.64523 19 ft 19 kts 210°
2026-04-26 06:50 55.61521 12.64395 17 ft 19 kts 214°
2026-04-26 06:50 55.61407 12.64264 17 ft 20 kts 212°
2026-04-26 06:50 55.61291 12.64133 17 ft 20 kts 212°
2026-04-26 06:51 55.61173 12.63994 17 ft 21 kts 217°
2026-04-26 06:51 55.60931 12.63715 17 ft 21 kts 213°
2026-04-26 06:51 55.60808 12.63569 17 ft 21 kts 214°
2026-04-26 06:52 55.60681 12.63423 18 ft 22 kts 213°
2026-04-26 06:52 55.60562 12.63258 17 ft 20 kts 217°
2026-04-26 06:52 55.60456 12.63287 17 ft 17 kts 136°
2026-04-26 06:52 55.60424 12.63466 17 ft 17 kts 61°
2026-04-26 06:53 55.60540 12.63656 17 ft 47 kts 40°
2026-04-26 06:53 55.61010 12.64377 16 ft 129 kts 41°
2026-04-26 06:53 55.61827 12.65671 95 ft 183 kts 42°
2026-04-26 06:53 55.62828 12.67203 828 ft 196 kts 38°
2026-04-26 06:54 55.63902 12.68845 1497 ft 217 kts 38°
2026-04-26 06:54 55.65054 12.70629 2547 ft 221 kts 38°
2026-04-26 06:54 55.66226 12.72412 3708 ft 222 kts 36°
2026-04-26 06:54 55.67412 12.74184 4879 ft 224 kts 36°
2026-04-26 06:55 55.68613 12.75974 5965 ft 227 kts 36°
2026-04-26 06:55 55.69709 12.78036 6748 ft 238 kts 54°
2026-04-26 06:55 55.70280 12.80860 7339 ft 252 kts 77°
2026-04-26 06:55 55.70105 12.84119 7606 ft 282 kts 107°
2026-04-26 06:56 55.68980 12.87058 8112 ft 299 kts 137°
2026-04-26 06:56 55.67135 12.88830 8658 ft 307 kts 160°
2026-04-26 06:56 55.65088 12.90007 9245 ft 312 kts 169°
2026-04-26 06:56 55.62926 12.90404 9857 ft 315 kts 184°
2026-04-26 06:57 55.60733 12.89938 10425 ft 324 kts 197°
2026-04-26 06:57 55.58560 12.88560 10649 ft 338 kts 213°
2026-04-26 06:57 55.56611 12.86247 11012 ft 338 kts 228°
2026-04-26 06:57 55.54941 12.83343 11270 ft 350 kts 229°
2026-04-26 06:58 55.52917 12.80724 11473 ft 372 kts 214°
2026-04-26 06:58 55.50488 12.78963 11907 ft 385 kts 199°
2026-04-26 06:58 55.47815 12.78232 12376 ft 395 kts 184°
2026-04-26 06:58 55.45047 12.78583 12841 ft 402 kts 174°
2026-04-26 06:59 55.42258 12.79200 13320 ft 406 kts 175°
2026-04-26 06:59 55.39436 12.79806 13781 ft 411 kts 175°
2026-04-26 06:59 55.36582 12.80510 14217 ft 417 kts 169°
2026-04-26 06:59 55.33787 12.81958 14669 ft 422 kts 158°
2026-04-26 07:00 55.31145 12.84265 15024 ft 426 kts 146°
2026-04-26 07:00 55.28747 12.87347 15424 ft 428 kts 138°
2026-04-26 07:00 55.26417 12.90637 15837 ft 432 kts 138°
2026-04-26 07:00 55.24054 12.93945 16257 ft 436 kts 139°
2026-04-26 07:01 55.21667 12.97263 16676 ft 439 kts 139°
2026-04-26 07:01 55.19260 13.00601 17090 ft 443 kts 139°
2026-04-26 07:01 55.16834 13.03956 17511 ft 446 kts 139°
2026-04-26 07:01 55.14393 13.07335 17915 ft 450 kts 139°
2026-04-26 07:02 55.11926 13.10748 18324 ft 453 kts 139°
2026-04-26 07:02 55.09445 13.14179 18691 ft 456 kts 139°
2026-04-26 07:02 55.06950 13.17623 19007 ft 459 kts 139°
2026-04-26 07:02 55.04450 13.21071 19375 ft 461 kts 140°
2026-04-26 07:03 55.01916 13.24563 19744 ft 464 kts 140°
2026-04-26 07:03 54.99376 13.28059 20047 ft 468 kts 140°
2026-04-26 07:03 54.96814 13.31580 20382 ft 471 kts 140°
2026-04-26 07:03 54.94151 13.34925 20721 ft 474 kts 148°
2026-04-26 07:04 54.91214 13.37571 21041 ft 477 kts 158°
2026-04-26 07:04 54.88112 13.39395 21368 ft 477 kts 168°
2026-04-26 07:04 54.84853 13.40451 21687 ft 477 kts 175°
2026-04-26 07:04 54.81560 13.41315 22017 ft 479 kts 175°
2026-04-26 07:05 54.78255 13.42196 22354 ft 482 kts 175°
2026-04-26 07:05 54.74939 13.43090 22678 ft 483 kts 174°
2026-04-26 07:05 54.71617 13.43991 23030 ft 484 kts 174°
2026-04-26 07:05 54.68281 13.44897 23360 ft 487 kts 174°
2026-04-26 07:06 54.64922 13.45808 23680 ft 489 kts 174°
2026-04-26 07:06 54.62694 13.46408 23889 ft 490 kts 175°
2026-04-26 07:06 54.59320 13.47305 24164 ft 492 kts 175°
2026-04-26 07:06 54.55931 13.48198 24449 ft 494 kts 175°
2026-04-26 07:07 54.52531 13.49091 24732 ft 495 kts 175°
2026-04-26 07:07 54.49117 13.49991 24991 ft 496 kts 175°
2026-04-26 07:07 54.45707 13.50877 25335 ft 497 kts 175°
2026-04-26 07:07 54.42277 13.51757 25564 ft 500 kts 176°
2026-04-26 07:08 54.38830 13.52624 25816 ft 501 kts 176°
2026-04-26 07:08 54.35376 13.53478 26079 ft 503 kts 176°
2026-04-26 07:08 54.31904 13.54337 26348 ft 505 kts 176°
2026-04-26 07:08 54.28423 13.55214 26614 ft 506 kts 176°
2026-04-26 07:09 54.24933 13.56121 26882 ft 508 kts 176°
2026-04-26 07:09 54.21442 13.57048 27149 ft 508 kts 175°
2026-04-26 07:09 54.17956 13.57984 27469 ft 508 kts 175°
2026-04-26 07:09 54.14458 13.58915 27743 ft 509 kts 176°
2026-04-26 07:10 54.03919 13.61637 28521 ft 513 kts 176°
2026-04-26 07:11 53.96842 13.63441 28970 ft 515 kts 176°
2026-04-26 07:11 53.93302 13.64351 29266 ft 515 kts 176°
2026-04-26 07:11 53.89803 13.65186 29520 ft 514 kts 178°
2026-04-26 07:11 53.86253 13.65883 29741 ft 514 kts 179°
2026-04-26 07:12 53.82644 13.66468 29952 ft 514 kts 180°
2026-04-26 07:12 53.79126 13.66976 30143 ft 515 kts 181°
2026-04-26 07:12 53.75561 13.67483 30392 ft 514 kts 181°
2026-04-26 07:12 53.71995 13.68017 30606 ft 516 kts 180°
2026-04-26 07:13 53.68418 13.68591 30734 ft 516 kts 180°
2026-04-26 07:13 53.64847 13.69198 30985 ft 515 kts 179°
2026-04-26 07:13 53.61288 13.69822 31208 ft 514 kts 179°
2026-04-26 07:13 53.57733 13.70448 31424 ft 514 kts 179°
2026-04-26 07:14 53.54174 13.71063 31632 ft 513 kts 179°
2026-04-26 07:14 53.50621 13.71665 31832 ft 513 kts 179°
2026-04-26 07:14 53.47071 13.72258 32035 ft 512 kts 179°
2026-04-26 07:14 53.43527 13.72844 32220 ft 512 kts 179°
2026-04-26 07:15 53.39994 13.73427 32472 ft 510 kts 179°
2026-04-26 07:15 53.36462 13.74014 32704 ft 509 kts 179°
2026-04-26 07:15 53.32940 13.74597 32908 ft 508 kts 179°
2026-04-26 07:15 53.29423 13.75178 33107 ft 508 kts 179°
2026-04-26 07:16 53.25904 13.75760 33301 ft 508 kts 179°
2026-04-26 07:16 53.22392 13.76340 33496 ft 507 kts 179°
2026-04-26 07:16 53.18881 13.76914 33642 ft 507 kts 179°
2026-04-26 07:16 53.15375 13.77488 33916 ft 504 kts 179°
2026-04-26 07:17 53.11894 13.78064 34167 ft 502 kts 179°
2026-04-26 07:17 53.08415 13.78639 34353 ft 501 kts 179°
2026-04-26 07:17 53.04952 13.79206 34516 ft 501 kts 179°
2026-04-26 07:17 53.01480 13.79776 34677 ft 500 kts 179°
2026-04-26 07:18 52.98022 13.80342 34840 ft 500 kts 179°
2026-04-26 07:18 52.94563 13.80903 35013 ft 500 kts 179°
2026-04-26 07:18 52.91096 13.81464 35119 ft 500 kts 178°
2026-04-26 07:18 52.87635 13.82025 35236 ft 500 kts 178°
2026-04-26 07:19 52.84164 13.82589 35268 ft 503 kts 178°
2026-04-26 07:19 52.77153 13.83721 35259 ft 508 kts 178°
2026-04-26 07:20 52.70145 13.84847 35261 ft 510 kts 178°
2026-04-26 07:20 52.63085 13.85985 35261 ft 510 kts 178°
2026-04-26 07:21 52.56020 13.87140 35265 ft 510 kts 178°
2026-04-26 07:21 52.48956 13.88269 35272 ft 511 kts 178°
2026-04-26 07:22 52.41876 13.89391 35250 ft 511 kts 178°
2026-04-26 07:22 52.34809 13.90510 35284 ft 510 kts 178°
2026-04-26 07:23 52.27754 13.91631 35298 ft 509 kts 178°
2026-04-26 07:23 52.20709 13.92751 35293 ft 508 kts 178°
2026-04-26 07:24 52.13672 13.93851 35250 ft 508 kts 178°
2026-04-26 07:24 52.06631 13.94942 35270 ft 508 kts 178°
2026-04-26 07:25 51.99594 13.96038 35278 ft 508 kts 178°
2026-04-26 07:25 51.92552 13.97141 35259 ft 508 kts 178°
2026-04-26 07:26 51.85520 13.98246 35288 ft 507 kts 178°
2026-04-26 07:26 51.78503 13.98862 35292 ft 503 kts 183°
2026-04-26 07:27 51.71518 13.98808 35290 ft 501 kts 185°
2026-04-26 07:27 51.64545 13.98694 35277 ft 501 kts 184°
2026-04-26 07:28 51.57584 13.98766 35293 ft 500 kts 183°
2026-04-26 07:28 51.50635 13.98938 35290 ft 498 kts 183°
2026-04-26 07:29 51.43705 13.99093 35257 ft 498 kts 183°
2026-04-26 07:29 51.36798 13.99208 35290 ft 495 kts 183°
2026-04-26 07:30 51.29916 13.99317 35313 ft 494 kts 183°
2026-04-26 07:30 51.23053 13.99431 35318 ft 493 kts 183°
2026-04-26 07:31 51.16201 13.99545 35314 ft 492 kts 183°
2026-04-26 07:31 51.09360 13.99652 35326 ft 491 kts 183°
2026-04-26 07:32 51.02586 13.99763 35318 ft 490 kts 183°
2026-04-26 07:32 50.95772 13.99880 35295 ft 490 kts 183°
2026-04-26 07:33 50.88962 14.00004 35295 ft 489 kts 183°
2026-04-26 07:33 50.82204 14.01456 35287 ft 495 kts 165°
2026-04-26 07:34 50.75808 14.05575 35287 ft 497 kts 158°
2026-04-26 07:34 50.69473 14.09930 35275 ft 496 kts 158°
2026-04-26 07:35 50.63138 14.14266 35289 ft 496 kts 158°
2026-04-26 07:35 50.56807 14.18578 35287 ft 496 kts 158°
2026-04-26 07:36 50.50468 14.22873 35284 ft 496 kts 158°
2026-04-26 07:36 50.44125 14.27179 35271 ft 496 kts 158°
2026-04-26 07:37 50.37794 14.31471 35299 ft 495 kts 158°
2026-04-26 07:37 50.31478 14.35727 35295 ft 494 kts 159°
2026-04-26 07:38 50.25174 14.39961 35311 ft 493 kts 159°
2026-04-26 07:38 50.18865 14.44186 35299 ft 494 kts 158°
2026-04-26 07:39 50.12545 14.48414 35296 ft 494 kts 159°
2026-04-26 07:39 50.06217 14.52637 35296 ft 495 kts 159°
2026-04-26 07:40 49.99920 14.56818 35291 ft 495 kts 159°
2026-04-26 07:40 49.93582 14.61006 35269 ft 495 kts 159°
2026-04-26 07:41 49.87252 14.65176 35285 ft 493 kts 159°
2026-04-26 07:41 49.80945 14.69346 35284 ft 493 kts 159°
2026-04-26 07:42 49.74625 14.73506 35282 ft 493 kts 159°
2026-04-26 07:42 49.68301 14.77639 35258 ft 493 kts 159°
2026-04-26 07:43 49.61987 14.81766 35280 ft 492 kts 159°
2026-04-26 07:43 49.55685 14.85872 35281 ft 492 kts 158°
2026-04-26 07:44 49.49855 14.91397 35273 ft 494 kts 143°
2026-04-26 07:44 49.44393 14.97801 35262 ft 494 kts 143°
2026-04-26 07:45 49.38913 15.04175 35266 ft 494 kts 143°
2026-04-26 07:45 49.33431 15.10510 35274 ft 493 kts 144°
2026-04-26 07:46 49.27988 15.16800 35269 ft 493 kts 143°
2026-04-26 07:46 49.22512 15.23120 35270 ft 493 kts 144°
2026-04-26 07:47 49.17023 15.29431 35247 ft 493 kts 143°
2026-04-26 07:47 49.11529 15.35740 35256 ft 493 kts 144°
2026-04-26 07:48 49.06036 15.42013 35252 ft 493 kts 144°
2026-04-26 07:48 49.00576 15.48221 35251 ft 493 kts 144°
2026-04-26 07:49 48.95069 15.54478 35264 ft 493 kts 144°
2026-04-26 07:49 48.89499 15.60542 35224 ft 493 kts 151°
2026-04-26 07:50 48.83240 15.64660 35234 ft 489 kts 162°
2026-04-26 07:50 48.80039 15.66418 35238 ft 489 kts 162°
2026-04-26 07:50 48.73638 15.69939 35235 ft 490 kts 162°
2026-04-26 07:51 48.67241 15.73464 35236 ft 489 kts 162°
2026-04-26 07:51 48.60844 15.76978 35242 ft 488 kts 162°
2026-04-26 07:52 48.54480 15.80453 35249 ft 486 kts 162°
2026-04-26 07:52 48.48135 15.83910 35243 ft 484 kts 162°
2026-04-26 07:53 48.41835 15.87330 35219 ft 483 kts 162°
2026-04-26 07:53 48.35518 15.90750 35233 ft 482 kts 162°
2026-04-26 07:54 48.29216 15.94154 35234 ft 480 kts 162°
2026-04-26 07:54 48.23946 15.96999 35230 ft 480 kts 162°
2026-04-26 07:55 48.17710 16.00353 35230 ft 479 kts 162°
2026-04-26 07:55 48.11419 16.03734 35196 ft 481 kts 161°
2026-04-26 07:56 48.05110 16.07113 35193 ft 482 kts 162°
2026-04-26 07:56 47.98775 16.10491 35182 ft 483 kts 162°
2026-04-26 07:57 47.92433 16.13860 35160 ft 484 kts 161°
2026-04-26 07:57 47.86084 16.17238 35177 ft 484 kts 161°
2026-04-26 07:58 47.79730 16.20603 35186 ft 484 kts 161°
2026-04-26 07:58 47.73411 16.23937 35182 ft 485 kts 161°
2026-04-26 07:59 47.67036 16.27301 35178 ft 486 kts 161°
2026-04-26 07:59 47.60660 16.30659 35173 ft 487 kts 162°
2026-04-26 08:00 47.54269 16.34009 35159 ft 488 kts 162°
2026-04-26 08:00 47.47875 16.37344 35165 ft 488 kts 162°
2026-04-26 08:01 47.41474 16.40682 35164 ft 487 kts 162°
2026-04-26 08:01 47.35090 16.44003 35166 ft 486 kts 162°
2026-04-26 08:02 47.28717 16.47305 35176 ft 484 kts 162°
2026-04-26 08:02 47.22343 16.50468 35157 ft 483 kts 163°
2026-04-26 08:03 47.16074 16.53394 35132 ft 471 kts 164°
2026-04-26 08:03 47.09832 16.56289 35131 ft 470 kts 163°
2026-04-26 08:04 47.03603 16.59223 35131 ft 470 kts 163°
2026-04-26 08:04 46.97371 16.62185 35130 ft 471 kts 163°
2026-04-26 08:05 46.91103 16.65148 35135 ft 474 kts 163°
2026-04-26 08:05 46.84813 16.68087 35134 ft 475 kts 164°
2026-04-26 08:06 46.78546 16.71017 35153 ft 475 kts 164°
2026-04-26 08:06 46.72250 16.73960 35142 ft 475 kts 163°
2026-04-26 08:07 46.65952 16.76906 35138 ft 476 kts 163°
2026-04-26 08:07 46.59649 16.79846 35149 ft 476 kts 163°
2026-04-26 08:08 46.53335 16.82771 35123 ft 477 kts 163°
2026-04-26 08:08 46.47004 16.85703 35145 ft 477 kts 163°
2026-04-26 08:09 46.40672 16.88633 35143 ft 478 kts 163°
2026-04-26 08:09 46.34331 16.91556 35139 ft 478 kts 163°
2026-04-26 08:10 46.27990 16.94459 35139 ft 477 kts 163°
2026-04-26 08:10 46.21850 16.97934 35144 ft 477 kts 152°
2026-04-26 08:11 46.15991 17.02466 35151 ft 477 kts 152°
2026-04-26 08:11 46.10116 17.06966 35147 ft 477 kts 152°
2026-04-26 08:12 46.04245 17.11458 35131 ft 478 kts 153°
2026-04-26 08:12 45.98411 17.15909 35133 ft 478 kts 153°
2026-04-26 08:13 45.92530 17.20381 35133 ft 478 kts 153°
2026-04-26 08:13 45.86636 17.24847 35138 ft 479 kts 153°
2026-04-26 08:14 45.80749 17.29310 35121 ft 479 kts 153°
2026-04-26 08:14 45.74854 17.33773 35127 ft 480 kts 153°
2026-04-26 08:15 45.68953 17.38227 35129 ft 480 kts 153°
2026-04-26 08:15 45.63043 17.42682 35133 ft 480 kts 153°
2026-04-26 08:16 45.57132 17.47128 35120 ft 480 kts 153°
2026-04-26 08:16 45.51215 17.51554 35122 ft 481 kts 153°
2026-04-26 08:17 45.45285 17.55974 35128 ft 481 kts 153°
2026-04-26 08:17 45.39357 17.60380 35125 ft 481 kts 153°
2026-04-26 08:18 45.33431 17.64786 35122 ft 481 kts 153°
2026-04-26 08:18 45.27541 17.69155 35128 ft 481 kts 153°
2026-04-26 08:19 45.21609 17.73552 35124 ft 481 kts 153°
2026-04-26 08:19 45.15679 17.77933 35112 ft 481 kts 154°
2026-04-26 08:20 45.09740 17.82297 35117 ft 481 kts 154°
2026-04-26 08:20 45.03851 17.86788 35119 ft 482 kts 147°
2026-04-26 08:21 44.98345 17.92200 35126 ft 482 kts 146°
2026-04-26 08:21 44.92833 17.97627 35108 ft 483 kts 146°
2026-04-26 08:22 44.87322 18.03031 35115 ft 483 kts 146°
2026-04-26 08:22 44.81799 18.08423 35121 ft 483 kts 146°
2026-04-26 08:23 44.76268 18.13815 35133 ft 483 kts 146°
2026-04-26 08:23 44.70743 18.19206 35129 ft 483 kts 146°
2026-04-26 08:24 44.65206 18.24593 35126 ft 484 kts 146°
2026-04-26 08:24 44.59670 18.29954 35134 ft 484 kts 147°
2026-04-26 08:25 44.54152 18.35271 35140 ft 484 kts 147°
2026-04-26 08:25 44.48592 18.40619 35147 ft 485 kts 147°
2026-04-26 08:26 44.43032 18.45978 35141 ft 485 kts 147°
2026-04-26 08:26 44.37468 18.51325 35149 ft 485 kts 147°
2026-04-26 08:27 44.31897 18.56656 35153 ft 485 kts 147°
2026-04-26 08:27 44.26327 18.61968 35145 ft 485 kts 147°
2026-04-26 08:28 44.20751 18.67275 35140 ft 485 kts 147°
2026-04-26 08:28 44.15216 18.72548 35143 ft 485 kts 147°
2026-04-26 08:29 44.09637 18.77845 35148 ft 485 kts 147°
2026-04-26 08:29 44.04065 18.83123 35157 ft 485 kts 147°
2026-04-26 08:30 43.98491 18.88393 35133 ft 485 kts 147°
2026-04-26 08:30 43.93098 18.94006 35139 ft 486 kts 140°
2026-04-26 08:31 43.87996 19.00160 35148 ft 486 kts 140°
2026-04-26 08:31 43.82908 19.06333 35150 ft 486 kts 140°
2026-04-26 08:32 43.77814 19.12489 35143 ft 486 kts 140°
2026-04-26 08:32 43.72705 19.18624 35130 ft 487 kts 140°
2026-04-26 08:33 43.67587 19.24750 35135 ft 487 kts 140°
2026-04-26 08:33 43.62465 19.30872 35147 ft 487 kts 140°
2026-04-26 08:34 43.57344 19.36980 35136 ft 487 kts 141°
2026-04-26 08:34 43.52210 19.43094 35135 ft 488 kts 141°
2026-04-26 08:35 43.47069 19.49207 35124 ft 488 kts 141°
2026-04-26 08:35 43.41963 19.55263 35131 ft 488 kts 141°
2026-04-26 08:36 43.36809 19.61352 35122 ft 489 kts 141°
2026-04-26 08:36 43.31648 19.67444 35118 ft 489 kts 141°
2026-04-26 08:37 43.26469 19.73528 35123 ft 490 kts 141°
2026-04-26 08:37 43.21291 19.79607 35123 ft 490 kts 141°
2026-04-26 08:38 43.16106 19.85684 35109 ft 491 kts 141°
2026-04-26 08:38 43.10915 19.91751 35119 ft 491 kts 142°
2026-04-26 08:39 43.05704 19.97810 35119 ft 491 kts 142°
2026-04-26 08:39 43.00522 20.03825 35120 ft 491 kts 142°
2026-04-26 08:40 42.95316 20.09874 35120 ft 491 kts 142°
2026-04-26 08:40 42.90093 20.15926 35126 ft 492 kts 142°
2026-04-26 08:41 42.84874 20.21963 35107 ft 492 kts 142°
2026-04-26 08:41 42.79642 20.27993 35121 ft 492 kts 142°
2026-04-26 08:42 42.74408 20.34000 35110 ft 492 kts 142°
2026-04-26 08:42 42.69204 20.39967 35116 ft 492 kts 142°
2026-04-26 08:43 42.63844 20.45734 35115 ft 490 kts 146°
2026-04-26 08:43 42.58264 20.51021 35116 ft 490 kts 148°
2026-04-26 08:44 42.52636 20.56241 35105 ft 490 kts 148°
2026-04-26 08:44 42.47062 20.61566 35115 ft 490 kts 147°
2026-04-26 08:45 42.41521 20.66967 35118 ft 490 kts 147°
2026-04-26 08:45 42.36910 20.71440 35120 ft 490 kts 147°
2026-04-26 08:46 42.31355 20.76785 35125 ft 490 kts 147°
2026-04-26 08:46 42.24888 20.82973 35122 ft 490 kts 147°
2026-04-26 08:47 42.20220 20.87418 35116 ft 490 kts 147°
2026-04-26 08:47 42.14659 20.92715 35117 ft 490 kts 147°
2026-04-26 08:48 42.09095 20.98023 35115 ft 490 kts 147°
2026-04-26 08:48 42.03530 21.03313 35095 ft 489 kts 147°
2026-04-26 08:49 41.98004 21.08551 35099 ft 489 kts 147°
2026-04-26 08:49 41.92438 21.13807 35104 ft 489 kts 147°
2026-04-26 08:50 41.86870 21.19060 35099 ft 489 kts 147°
2026-04-26 08:50 41.81305 21.24308 35088 ft 489 kts 147°
2026-04-26 08:51 41.72947 21.32158 35087 ft 489 kts 147°
2026-04-26 08:52 41.67377 21.37378 35088 ft 488 kts 147°
2026-04-26 08:52 41.61840 21.42549 35092 ft 488 kts 147°
2026-04-26 08:53 41.56267 21.47754 35092 ft 488 kts 147°
2026-04-26 08:53 41.50702 21.52939 35096 ft 488 kts 147°
2026-04-26 08:54 41.45129 21.58108 35094 ft 488 kts 147°
2026-04-26 08:54 41.39554 21.63263 35097 ft 487 kts 147°
2026-04-26 08:55 41.33985 21.68414 35091 ft 487 kts 147°
2026-04-26 08:55 41.28448 21.73522 35092 ft 487 kts 147°
2026-04-26 08:56 41.22883 21.78651 35089 ft 486 kts 147°
2026-04-26 08:56 41.17312 21.83779 35091 ft 487 kts 147°
2026-04-26 08:57 41.11737 21.88888 35088 ft 487 kts 147°
2026-04-26 08:57 41.06164 21.93978 35076 ft 486 kts 147°
2026-04-26 08:58 41.00589 21.99066 35083 ft 486 kts 147°
2026-04-26 08:58 40.95022 22.04139 35084 ft 486 kts 147°
2026-04-26 08:59 40.89451 22.09212 35080 ft 486 kts 147°
2026-04-26 08:59 40.83916 22.14234 35078 ft 486 kts 147°
2026-04-26 09:00 40.78349 22.19271 35075 ft 485 kts 147°
2026-04-26 09:00 40.72774 22.24309 35075 ft 485 kts 146°
2026-04-26 09:01 40.67208 22.29340 35075 ft 485 kts 147°
2026-04-26 09:01 40.61648 22.34349 35075 ft 485 kts 147°
2026-04-26 09:02 40.56057 22.39363 35075 ft 485 kts 147°
2026-04-26 09:02 40.50511 22.44324 35075 ft 485 kts 147°
2026-04-26 09:03 40.44936 22.49311 35076 ft 485 kts 146°
2026-04-26 09:03 40.39355 22.54297 35076 ft 485 kts 147°
2026-04-26 09:04 40.33768 22.59248 35067 ft 484 kts 149°
2026-04-26 09:04 40.27713 22.63036 35071 ft 483 kts 158°
2026-04-26 09:05 40.21510 22.66464 35078 ft 483 kts 158°
2026-04-26 09:05 40.15323 22.69897 35079 ft 483 kts 158°
2026-04-26 09:06 40.09144 22.73326 35070 ft 483 kts 158°
2026-04-26 09:06 40.02952 22.76746 35075 ft 483 kts 158°
2026-04-26 09:07 39.96802 22.80133 35088 ft 483 kts 158°
2026-04-26 09:07 39.90612 22.83535 35083 ft 483 kts 158°
2026-04-26 09:08 39.84412 22.86941 35074 ft 483 kts 157°
2026-04-26 09:08 39.78223 22.90332 35077 ft 483 kts 157°
2026-04-26 09:09 39.72033 22.93717 35081 ft 483 kts 157°
2026-04-26 09:09 39.65841 22.97092 35082 ft 483 kts 157°
2026-04-26 09:10 39.59644 23.00456 35076 ft 483 kts 157°
2026-04-26 09:10 39.53450 23.03831 35078 ft 483 kts 157°
2026-04-26 09:11 39.47289 23.07181 35082 ft 483 kts 157°
2026-04-26 09:11 39.41092 23.10537 35082 ft 483 kts 157°
2026-04-26 09:12 39.34889 23.13880 35081 ft 483 kts 156°
2026-04-26 09:12 39.28680 23.17224 35081 ft 483 kts 156°
2026-04-26 09:13 39.22483 23.20561 35081 ft 483 kts 156°
2026-04-26 09:13 39.16319 23.23874 35081 ft 483 kts 156°
2026-04-26 09:14 39.10113 23.27206 35081 ft 483 kts 156°
2026-04-26 09:14 39.03908 23.30525 35086 ft 483 kts 156°
2026-04-26 09:15 38.97717 23.33833 34690 ft 477 kts 156°
2026-04-26 09:15 38.94693 23.35446 34449 ft 467 kts 156°
2026-04-26 09:15 38.91710 23.37032 34207 ft 459 kts 156°
2026-04-26 09:15 38.88767 23.38594 33956 ft 456 kts 156°
2026-04-26 09:16 38.85845 23.40147 33697 ft 453 kts 156°
2026-04-26 09:16 38.82940 23.41693 33419 ft 451 kts 156°
2026-04-26 09:16 38.80048 23.43230 33160 ft 449 kts 155°
2026-04-26 09:16 38.77167 23.44762 32895 ft 447 kts 155°
2026-04-26 09:17 38.74296 23.46285 32633 ft 445 kts 155°
2026-04-26 09:17 38.71440 23.47798 32375 ft 444 kts 155°
2026-04-26 09:17 38.68607 23.49297 31991 ft 439 kts 155°
2026-04-26 09:17 38.65797 23.50782 31495 ft 436 kts 155°
2026-04-26 09:18 38.62998 23.52260 31004 ft 433 kts 155°
2026-04-26 09:18 38.60219 23.53727 30529 ft 430 kts 155°
2026-04-26 09:18 38.57504 23.55159 30050 ft 427 kts 156°
2026-04-26 09:18 38.54764 23.56603 29548 ft 423 kts 156°
2026-04-26 09:19 38.52060 23.58030 29094 ft 418 kts 155°
2026-04-26 09:19 38.49388 23.59442 28660 ft 413 kts 156°
2026-04-26 09:19 38.46745 23.60834 28224 ft 409 kts 156°
2026-04-26 09:19 38.44121 23.62207 27798 ft 405 kts 156°
2026-04-26 09:20 38.41523 23.63566 27357 ft 401 kts 155°
2026-04-26 09:20 38.38950 23.64915 26961 ft 397 kts 155°
2026-04-26 09:20 38.36409 23.66245 26549 ft 393 kts 155°
2026-04-26 09:20 38.33889 23.67563 26157 ft 389 kts 155°
2026-04-26 09:21 38.31394 23.68869 25749 ft 386 kts 155°
2026-04-26 09:21 38.28920 23.70163 25347 ft 383 kts 155°
2026-04-26 09:21 38.26500 23.71429 24941 ft 379 kts 156°
2026-04-26 09:21 38.24034 23.72718 24524 ft 377 kts 156°
2026-04-26 09:22 38.21619 23.73980 24110 ft 375 kts 156°
2026-04-26 09:22 38.19210 23.75237 23700 ft 373 kts 156°
2026-04-26 09:22 38.16867 23.76606 23216 ft 369 kts 148°
2026-04-26 09:22 38.14736 23.78382 22807 ft 363 kts 142°
2026-04-26 09:23 38.12706 23.80179 22400 ft 359 kts 142°
2026-04-26 09:23 38.10662 23.81980 22005 ft 355 kts 143°
2026-04-26 09:23 38.08640 23.83754 21603 ft 352 kts 143°
2026-04-26 09:23 38.06635 23.85509 21205 ft 348 kts 143°
2026-04-26 09:24 38.04648 23.87247 20812 ft 345 kts 143°
2026-04-26 09:24 38.02678 23.88971 20417 ft 342 kts 143°
2026-04-26 09:24 38.00729 23.90678 20023 ft 340 kts 143°
2026-04-26 09:24 37.98790 23.92377 19629 ft 337 kts 143°
2026-04-26 09:25 37.96869 23.94063 19239 ft 335 kts 143°
2026-04-26 09:25 37.94961 23.95736 18865 ft 333 kts 143°
2026-04-26 09:25 37.93062 23.97398 18486 ft 331 kts 143°
2026-04-26 09:25 37.91172 23.99050 18063 ft 329 kts 143°
2026-04-26 09:26 37.89298 24.00691 17674 ft 326 kts 143°
2026-04-26 09:26 37.87442 24.02316 17294 ft 323 kts 143°
2026-04-26 09:26 37.85622 24.03907 16929 ft 321 kts 143°
2026-04-26 09:26 37.83735 24.05557 16565 ft 334 kts 143°
2026-04-26 09:27 37.81815 24.07242 16004 ft 337 kts 143°
2026-04-26 09:27 37.79894 24.08928 15542 ft 335 kts 143°
2026-04-26 09:27 37.77980 24.10599 15104 ft 333 kts 143°
2026-04-26 09:27 37.76069 24.12239 14678 ft 331 kts 147°
2026-04-26 09:28 37.73928 24.13257 14264 ft 330 kts 172°
2026-04-26 09:28 37.71665 24.13116 13975 ft 324 kts 196°
2026-04-26 09:28 37.69654 24.11928 13665 ft 317 kts 213°
2026-04-26 09:28 37.67811 24.10394 13244 ft 314 kts 215°
2026-04-26 09:29 37.66061 24.08878 12917 ft 299 kts 215°
2026-04-26 09:29 37.64387 24.07415 12499 ft 286 kts 215°
2026-04-26 09:29 37.62813 24.06035 12264 ft 268 kts 215°
2026-04-26 09:29 37.61307 24.04719 11865 ft 261 kts 215°
2026-04-26 09:30 37.59828 24.03423 11400 ft 257 kts 215°
2026-04-26 09:30 37.58368 24.02136 10923 ft 255 kts 215°
2026-04-26 09:30 37.56928 24.00855 10469 ft 252 kts 215°
2026-04-26 09:30 37.55505 23.99577 10068 ft 250 kts 215°
2026-04-26 09:31 37.54100 23.98297 9701 ft 248 kts 215°
2026-04-26 09:31 37.52811 23.96880 9321 ft 246 kts 234°
2026-04-26 09:31 37.52200 23.94938 8941 ft 243 kts 265°
2026-04-26 09:31 37.52473 23.92875 8559 ft 240 kts 296°
2026-04-26 09:32 37.53324 23.91083 8176 ft 238 kts 304°
2026-04-26 09:32 37.54257 23.89370 7816 ft 236 kts 305°
2026-04-26 09:32 37.55190 23.87683 7466 ft 233 kts 305°
2026-04-26 09:32 37.56117 23.86018 7134 ft 231 kts 305°
2026-04-26 09:33 37.57037 23.84370 6790 ft 229 kts 305°
2026-04-26 09:33 37.57951 23.82739 6438 ft 227 kts 305°
2026-04-26 09:33 37.58862 23.81121 6065 ft 226 kts 305°
2026-04-26 09:33 37.59768 23.79511 5699 ft 225 kts 305°
2026-04-26 09:34 37.60667 23.77909 5337 ft 223 kts 305°
2026-04-26 09:34 37.61259 23.76854 5096 ft 222 kts 305°
2026-04-26 09:34 37.62146 23.75273 4784 ft 218 kts 305°
2026-04-26 09:34 37.63014 23.73730 4472 ft 214 kts 305°
2026-04-26 09:35 37.64050 23.72416 4115 ft 212 kts 332°
2026-04-26 09:35 37.65475 23.72026 3763 ft 212 kts 360°
2026-04-26 09:35 37.66945 23.72156 3401 ft 211 kts
2026-04-26 09:35 37.68403 23.72346 3073 ft 209 kts
2026-04-26 09:36 37.69841 23.72534 3002 ft 208 kts
2026-04-26 09:36 37.71285 23.72721 3006 ft 209 kts
2026-04-26 09:36 37.72677 23.73198 2995 ft 211 kts 32°
2026-04-26 09:36 37.73774 23.74437 3011 ft 212 kts 39°
2026-04-26 09:37 37.74923 23.75578 3006 ft 205 kts 35°
2026-04-26 09:37 37.76042 23.76631 3006 ft 198 kts 35°
2026-04-26 09:37 37.77132 23.77658 3000 ft 191 kts 35°
2026-04-26 09:37 37.78168 23.78637 3003 ft 183 kts 35°
2026-04-26 09:38 37.79179 23.79591 3006 ft 180 kts 35°
2026-04-26 09:38 37.80158 23.80517 3004 ft 173 kts 35°
2026-04-26 09:38 37.81111 23.81419 2921 ft 170 kts 35°
2026-04-26 09:38 37.82057 23.82314 2763 ft 169 kts 35°
2026-04-26 09:39 37.82993 23.83201 2549 ft 168 kts 36°
2026-04-26 09:39 37.83924 23.84082 2331 ft 166 kts 36°
2026-04-26 09:39 37.84825 23.84936 2127 ft 157 kts 36°
2026-04-26 09:39 37.85683 23.85750 1916 ft 153 kts 36°
2026-04-26 09:40 37.86527 23.86550 1710 ft 150 kts 36°
2026-04-26 09:40 37.87364 23.87343 1512 ft 150 kts 36°
2026-04-26 09:40 37.88198 23.88134 1308 ft 149 kts 36°
2026-04-26 09:40 37.89023 23.88915 1097 ft 150 kts 36°
2026-04-26 09:41 37.89853 23.89710 886 ft 149 kts 37°
2026-04-26 09:41 37.90688 23.90495 719 ft 149 kts 37°
2026-04-26 09:41 37.91514 23.91286 523 ft 148 kts 38°
2026-04-26 09:41 37.92341 23.92072 353 ft 148 kts 39°
2026-04-26 09:42 37.93111 23.92811 290 ft 121 kts 36°
2026-04-26 09:42 37.93635 23.93303 296 ft 67 kts 37°
2026-04-26 09:42 37.93861 23.93539 294 ft 29 kts 52°
2026-04-26 09:42 37.93929 23.93696 299 ft 16 kts 64°
2026-04-26 09:43 37.93968 23.93801 299 ft 12 kts 65°
2026-04-26 09:43 37.94002 23.93894 301 ft 11 kts 64°
2026-04-26 09:43 37.94053 23.93972 300 ft 12 kts 40°
2026-04-26 09:43 37.94120 23.94035 303 ft 11 kts 34°
2026-04-26 09:44 37.94170 23.94075 302 ft 6 kts 31°
2026-04-26 09:44 37.94205 23.94115 303 ft 8 kts 44°
2026-04-26 09:44 37.94259 23.94169 301 ft 13 kts 34°
2026-04-26 09:44 37.94361 23.94267 301 ft 23 kts 38°
2026-04-26 09:45 37.94500 23.94396 306 ft 25 kts 36°
2026-04-26 09:45 37.94640 23.94530 304 ft 25 kts 38°
2026-04-26 09:45 37.94652 23.94673 302 ft 19 kts 128°
2026-04-26 09:45 37.94574 23.94813 303 ft 20 kts 126°
2026-04-26 09:46 37.94490 23.94958 301 ft 21 kts 126°
2026-04-26 09:46 37.94400 23.95111 303 ft 22 kts 128°
2026-04-26 09:46 37.94305 23.95267 302 ft 23 kts 127°
2026-04-26 09:46 37.94208 23.95430 302 ft 23 kts 126°
2026-04-26 09:47 37.94138 23.95543 300 ft 16 kts 141°
2026-04-26 09:47 37.94035 23.95506 301 ft 17 kts 216°
2026-04-26 09:47 37.93936 23.95412 302 ft 18 kts 217°
2026-04-26 09:47 37.93832 23.95310 300 ft 19 kts 217°
2026-04-26 09:48 37.93725 23.95210 303 ft 14 kts 217°
2026-04-26 09:48 37.93710 23.95104 302 ft 13 kts 274°
2026-04-26 09:48 37.93652 23.95013 300 ft 14 kts 216°
2026-04-26 09:48 37.93580 23.94944 302 ft 9 kts 217°
2026-04-26 09:49 37.93570 23.94899 301 ft 6 kts 302°
2026-04-26 09:49 37.93593 23.94858 301 ft 3 kts 308°
2026-04-26 09:49 37.93602 23.94844 301 ft 1 kts 308°
2026-04-26 09:49 37.93605 23.94839 301 ft 0 kts 308°